Home   Weather   Bloemfontein   Past weeks

Flag for South Africa Past Weather in Bloemfontein, South Africa — Yesterday and Last 2 Weeks

Now
57 °F

Passing clouds.


Feels Like: 56 °F
Forecast: 28 / 63 °F
Wind: 6 mph from North

Location: Bloemfontein Airport

Current Time: Jul 25, 2017 at 10:57:33 am

Latest Report: Jul 25, 2017 at 10:05 am


Visibility: N/A

Pressure: 30.33 "Hg (25.68 "Hg at 1397m altitude)

Humidity: 29%

Dew Point: 25 °F

Location of BloemfonteinLocation

Past Weather in Bloemfontein — Graph

°F

Bloemfontein Temperature Yesterday

Maximum temperature yesterday: 68 °F (at 2:00 pm)
Minimum temperature yesterday: 23 °F (at 5:00 am)
Average temperature yesterday: 44 °F

High & Low Weather Summary for the Past Weeks

 TemperatureHumidityPressure
High75 °F (Jul 12, 2:00 pm)93% (Jul 16, 11:00 pm)30.51 "Hg (Jul 16, 11:00 pm)
Low21 °F (Jul 17, 7:00 am)6% (Jul 23, 3:00 pm)30.01 "Hg (Jul 15, 12:31 am)
Average47 °F41%30.26 "Hg
* Reported Jul 10 9:00 am — Jul 25 9:35 am, Bloemfontein. Weather by CustomWeather, © 2017

Note: Actual official high and low records may vary slightly from our data, if they occured in-between our weather recording intervals... More about our weather records

Advertising

Bloemfontein Weather History for the Previous 24 Hours

Scroll right to see more
 ConditionsComfort  
Time TempWeatherWind HumidityBarometerVisibility
9:35 am
Tue, Jul 25
52 °FPassing clouds.5 mph32%30.33 "HgN/A
9:20 am50 °FSunny.2 mph32%30.33 "Hg10 mi
9:00 am46 °FSunny.1 mph37%30.33 "Hg10 mi
8:44 am45 °FSunny.2 mph39%30.33 "Hg10 mi
8:01 am37 °FSunny.1 mph48%30.33 "Hg10 mi
8:00 am34 °FSunny.No wind51%30.33 "Hg10 mi
7:31 am30 °FSunny.2 mph59%30.30 "Hg10 mi
7:00 am28 °FClear.1 mph64%30.30 "Hg10 mi
6:00 am28 °FClear.2 mph64%30.30 "Hg10 mi
5:00 am30 °FClear.2 mph55%30.30 "Hg10 mi
4:00 am30 °FChilly.2 mph59%30.30 "HgN/A
3:00 am30 °FChilly.2 mph55%30.30 "HgN/A
2:00 am32 °FChilly.2 mph47%30.33 "HgN/A
1:00 am32 °FChilly.1 mph47%30.33 "HgN/A
12:00 am36 °FChilly.2 mph38%30.33 "HgN/A
11:00 pm
Mon, Jul 24
34 °FChilly.No wind44%30.33 "HgN/A
10:00 pm37 °FChilly.2 mph38%30.33 "HgN/A
9:00 pm39 °FChilly.2 mph36%30.33 "HgN/A
8:00 pm43 °FClear.No wind29%30.33 "Hg10 mi
7:00 pm50 °FClear.No wind24%30.30 "Hg10 mi
6:00 pm59 °FClear.5 mph17%30.30 "Hg10 mi
5:00 pm64 °FSunny.6 mph15%30.30 "Hg10 mi
4:00 pm68 °FSunny.9 mph14%30.30 "Hg10 mi
3:00 pm68 °FPassing clouds.10 mph12%30.33 "HgN/A
2:00 pm68 °FPassing clouds.10 mph13%30.33 "HgN/A
1:00 pm66 °FPassing clouds.8 mph19%30.36 "HgN/A
12:00 pm63 °FPassing clouds.8 mph34%30.39 "HgN/A
11:00 am59 °FPassing clouds.9 mph45%30.42 "HgN/A
10:02 am54 °FPassing clouds.7 mph41%30.45 "HgN/A
10:00 am50 °FSunny.6 mph43%30.45 "Hg10 mi
Weather by CustomWeather, © 2017

See weather overviewHow to use our weather pages